Time,TemperatureF,DewpointF,PressureIn,WindDirection,WindDirectionDegrees,WindSpeedMPH,WindSpeedGustMPH,Humidity,HourlyPrecipIn,Conditions,Clouds,dailyrainin,SolarRadiationWatts/m^2,SoftwareType,DateUTC
2013-05-22 00:10:00,49.5,-99.9,30.02,NW,315,9.0,23.0,0,0.00,,,0.00,0,weatherlink.com 1.10,2013-05-22 07:10:00,
2013-05-22 00:25:00,49.3,-99.9,30.03,NW,317,8.0,20.0,0,0.00,,,0.00,0,weatherlink.com 1.10,2013-05-22 07:25:00,
2013-05-22 00:41:00,49.1,-99.9,30.03,NW,304,15.0,20.0,0,0.00,,,0.00,0,weatherlink.com 1.10,2013-05-22 07:41:00,
2013-05-22 00:56:00,49.3,-13.0,30.03,NW,309,18.0,21.0,7,0.00,,,0.00,0,weatherlink.com 1.10,2013-05-22 07:56:00,
2013-05-22 01:10:00,49.2,-4.0,30.03,NW,310,8.0,22.0,11,0.00,,,0.00,0,weatherlink.com 1.10,2013-05-22 08:10:00,
2013-05-22 01:25:00,49.0,3.0,30.03,WNW,298,12.0,18.0,15,0.00,,,0.00,0,weatherlink.com 1.10,2013-05-22 08:25:00,
2013-05-22 01:44:00,48.9,7.0,30.03,NW,318,8.0,15.0,18,0.00,,,0.00,0,weatherlink.com 1.10,2013-05-22 08:44:00,
2013-05-22 01:56:00,48.8,7.0,30.03,NNW,331,7.0,15.0,18,0.00,,,0.00,0,weatherlink.com 1.10,2013-05-22 08:56:00,
2013-05-22 02:14:00,48.9,7.0,30.03,NW,315,4.0,15.0,18,0.00,,,0.00,0,weatherlink.com 1.10,2013-05-22 09:14:00,
2013-05-22 02:26:00,48.6,3.0,30.03,NW,313,7.0,16.0,15,0.00,,,0.00,0,weatherlink.com 1.10,2013-05-22 09:26:00,
2013-05-22 02:42:00,47.8,2.0,30.03,NNW,347,5.0,10.0,15,0.00,,,0.00,0,weatherlink.com 1.10,2013-05-22 09:42:00,
2013-05-22 02:58:00,46.9,6.0,30.04,NNE,30,6.0,8.0,19,0.00,,,0.00,0,weatherlink.com 1.10,2013-05-22 09:58:00,
2013-05-22 03:13:00,46.7,17.0,30.04,NNW,346,5.0,8.0,31,0.00,,,0.00,0,weatherlink.com 1.10,2013-05-22 10:13:00,
2013-05-22 03:27:00,46.7,24.0,30.04,NNW,333,5.0,9.0,41,0.00,,,0.00,0,weatherlink.com 1.10,2013-05-22 10:27:00,
2013-05-22 03:43:00,46.4,19.0,30.04,NW,311,4.0,9.0,34,0.00,,,0.00,0,weatherlink.com 1.10,2013-05-22 10:43:00,
2013-05-22 03:57:00,46.0,8.0,30.04,NNW,339,4.0,7.0,21,0.00,,,0.00,0,weatherlink.com 1.10,2013-05-22 10:57:00,
2013-05-22 04:13:00,45.8,4.0,30.04,NW,313,4.0,8.0,18,0.00,,,0.00,0,weatherlink.com 1.10,2013-05-22 11:13:00,
2013-05-22 04:29:00,46.1,1.0,30.03,NW,313,2.0,8.0,15,0.00,,,0.00,0,weatherlink.com 1.10,2013-05-22 11:29:00,
2013-05-22 04:44:00,46.1,7.0,30.03,NNW,329,5.0,7.0,20,0.00,,,0.00,0,weatherlink.com 1.10,2013-05-22 11:44:00,
2013-05-22 04:58:00,46.4,7.0,30.04,West,277,7.0,11.0,20,0.00,,,0.00,0,weatherlink.com 1.10,2013-05-22 11:58:00,
2013-05-22 05:14:00,46.7,-6.0,30.03,NW,304,7.0,14.0,11,0.00,,,0.00,0,weatherlink.com 1.10,2013-05-22 12:14:00,
2013-05-22 05:28:00,46.8,-31.0,30.04,NW,322,6.0,8.0,3,0.00,,,0.00,0,weatherlink.com 1.10,2013-05-22 12:28:00,
2013-05-22 05:43:00,46.4,-6.0,30.04,NNW,346,7.0,8.0,11,0.00,,,0.00,0,weatherlink.com 1.10,2013-05-22 12:43:00,
2013-05-22 05:59:00,45.9,6.0,30.04,WNW,301,4.0,9.0,19,0.00,,,0.00,7,weatherlink.com 1.10,2013-05-22 12:59:00,
2013-05-22 06:15:00,45.8,12.0,30.05,NW,320,5.0,7.0,25,0.00,,,0.00,16,weatherlink.com 1.10,2013-05-22 13:15:00,
2013-05-22 06:30:00,46.0,17.0,30.05,North,355,4.0,6.0,31,0.00,,,0.00,23,weatherlink.com 1.10,2013-05-22 13:30:00,
2013-05-22 06:44:00,46.9,22.0,30.05,NNW,337,4.0,7.0,37,0.00,,,0.00,88,weatherlink.com 1.10,2013-05-22 13:44:00,
2013-05-22 06:59:00,48.1,27.0,30.05,NW,313,2.0,8.0,44,0.00,,,0.00,144,weatherlink.com 1.10,2013-05-22 13:59:00,
2013-05-22 07:14:00,49.2,33.0,30.05,NW,311,6.0,8.0,55,0.00,,,0.00,200,weatherlink.com 1.10,2013-05-22 14:14:00,
2013-05-22 07:29:00,50.7,35.0,30.06,WNW,290,4.0,8.0,56,0.00,,,0.00,253,weatherlink.com 1.10,2013-05-22 14:29:00,
2013-05-22 07:45:00,51.9,36.0,30.06,NW,305,5.0,15.0,56,0.00,,,0.00,306,weatherlink.com 1.10,2013-05-22 14:45:00,
2013-05-22 08:00:00,52.3,37.0,30.06,WNW,283,13.0,20.0,57,0.00,,,0.00,359,weatherlink.com 1.10,2013-05-22 15:00:00,
2013-05-22 08:15:00,51.8,34.0,30.06,WNW,286,15.0,19.0,50,0.00,,,0.00,410,weatherlink.com 1.10,2013-05-22 15:15:00,
2013-05-22 08:30:00,52.0,32.0,30.06,WNW,291,7.0,16.0,47,0.00,,,0.00,457,weatherlink.com 1.10,2013-05-22 15:30:00,
2013-05-22 08:46:00,52.2,31.0,30.06,NW,311,12.0,20.0,44,0.00,,,0.00,506,weatherlink.com 1.10,2013-05-22 15:46:00,
2013-05-22 09:00:00,52.4,32.0,30.06,NW,314,3.0,20.0,46,0.00,,,0.00,557,weatherlink.com 1.10,2013-05-22 16:00:00,
2013-05-22 09:16:00,54.1,38.0,30.06,WNW,296,7.0,18.0,55,0.00,,,0.00,610,weatherlink.com 1.10,2013-05-22 16:16:00,
2013-05-22 09:31:00,53.8,39.0,30.05,West,275,12.0,20.0,57,0.00,,,0.00,652,weatherlink.com 1.10,2013-05-22 16:31:00,
2013-05-22 09:47:00,54.3,40.0,30.05,WNW,300,16.0,20.0,58,0.00,,,0.00,696,weatherlink.com 1.10,2013-05-22 16:47:00,
2013-05-22 10:01:00,54.2,39.0,30.05,NNW,329,6.0,22.0,57,0.00,,,0.00,737,weatherlink.com 1.10,2013-05-22 17:01:00,
2013-05-22 10:16:00,54.4,38.0,30.04,NW,312,8.0,22.0,54,0.00,,,0.00,777,weatherlink.com 1.10,2013-05-22 17:16:00,
2013-05-22 10:31:00,54.5,36.0,30.04,NW,312,12.0,21.0,51,0.00,,,0.00,814,weatherlink.com 1.10,2013-05-22 17:31:00,
2013-05-22 10:47:00,55.0,39.0,30.03,West,276,11.0,24.0,56,0.00,,,0.00,846,weatherlink.com 1.10,2013-05-22 17:47:00,
2013-05-22 11:03:00,55.2,37.0,30.04,NW,316,7.0,23.0,50,0.00,,,0.00,882,weatherlink.com 1.10,2013-05-22 18:03:00,
2013-05-22 11:18:00,55.3,37.0,30.04,NW,320,21.0,25.0,50,0.00,,,0.00,888,weatherlink.com 1.10,2013-05-22 18:18:00,
2013-05-22 11:32:00,54.8,34.0,30.03,WNW,295,15.0,23.0,45,0.00,,,0.00,921,weatherlink.com 1.10,2013-05-22 18:32:00,
2013-05-22 11:47:00,55.9,39.0,30.03,WNW,292,11.0,20.0,53,0.00,,,0.00,944,weatherlink.com 1.10,2013-05-22 18:47:00,
2013-05-22 12:02:00,54.9,37.0,30.03,WNW,282,9.0,23.0,52,0.00,,,0.00,963,weatherlink.com 1.10,2013-05-22 19:02:00,
2013-05-22 12:17:00,54.9,36.0,30.02,WNW,295,14.0,26.0,50,0.00,,,0.00,972,weatherlink.com 1.10,2013-05-22 19:17:00,
2013-05-22 12:33:00,55.7,39.0,30.02,West,268,7.0,24.0,53,0.00,,,0.00,983,weatherlink.com 1.10,2013-05-22 19:33:00,
2013-05-22 12:48:00,55.8,38.0,30.02,North,351,11.0,27.0,51,0.00,,,0.00,988,weatherlink.com 1.10,2013-05-22 19:48:00,
2013-05-22 13:03:00,55.3,35.0,30.02,NW,304,15.0,31.0,47,0.00,,,0.00,990,weatherlink.com 1.10,2013-05-22 20:03:00,
2013-05-22 13:18:00,55.6,40.0,30.01,NW,304,16.0,29.0,56,0.00,,,0.00,993,weatherlink.com 1.10,2013-05-22 20:18:00,
2013-05-22 13:33:00,55.5,37.0,30.01,WNW,293,14.0,27.0,51,0.00,,,0.00,984,weatherlink.com 1.10,2013-05-22 20:33:00,
2013-05-22 13:48:00,55.4,38.0,30.01,NW,304,9.0,31.0,53,0.00,,,0.00,979,weatherlink.com 1.10,2013-05-22 20:48:00,
2013-05-22 14:03:00,56.0,40.0,30.00,West,276,16.0,30.0,56,0.00,,,0.00,967,weatherlink.com 1.10,2013-05-22 21:03:00,
2013-05-22 14:19:00,55.9,37.0,30.00,NNW,336,10.0,33.0,50,0.00,,,0.00,944,weatherlink.com 1.10,2013-05-22 21:19:00,
2013-05-22 14:34:00,56.3,39.0,30.00,North,5,9.0,29.0,52,0.00,,,0.00,925,weatherlink.com 1.10,2013-05-22 21:34:00,
2013-05-22 14:49:00,56.3,38.0,30.00,West,279,18.0,33.0,50,0.00,,,0.00,902,weatherlink.com 1.10,2013-05-22 21:49:00,
2013-05-22 15:05:00,56.6,36.0,29.99,West,264,7.0,28.0,46,0.00,,,0.00,872,weatherlink.com 1.10,2013-05-22 22:05:00,
2013-05-22 15:20:00,55.5,33.0,29.99,NW,321,12.0,29.0,43,0.00,,,0.00,847,weatherlink.com 1.10,2013-05-22 22:20:00,
2013-05-22 15:35:00,56.1,30.0,29.98,NNW,336,9.0,32.0,37,0.00,,,0.00,810,weatherlink.com 1.10,2013-05-22 22:35:00,
2013-05-22 15:49:00,56.2,35.0,29.98,NW,317,19.0,31.0,46,0.00,,,0.00,777,weatherlink.com 1.10,2013-05-22 22:49:00,
2013-05-22 16:05:00,55.6,35.0,29.97,WNW,293,13.0,40.0,46,0.00,,,0.00,735,weatherlink.com 1.10,2013-05-22 23:05:00,
2013-05-22 16:21:00,55.4,32.0,29.97,NW,304,24.0,32.0,41,0.00,,,0.00,687,weatherlink.com 1.10,2013-05-22 23:21:00,
2013-05-22 16:36:00,55.0,30.0,29.96,West,280,24.0,39.0,39,0.00,,,0.00,649,weatherlink.com 1.10,2013-05-22 23:36:00,
2013-05-22 16:51:00,55.2,27.0,29.96,WNW,285,22.0,35.0,34,0.00,,,0.00,605,weatherlink.com 1.10,2013-05-22 23:51:00,
2013-05-22 17:05:00,54.9,21.0,29.96,WNW,286,7.0,34.0,27,0.00,,,0.00,557,weatherlink.com 1.10,2013-05-23 00:05:00,
2013-05-22 17:20:00,55.0,21.0,29.96,WNW,294,19.0,33.0,27,0.00,,,0.00,512,weatherlink.com 1.10,2013-05-23 00:20:00,
2013-05-22 17:36:00,54.2,19.0,29.95,WNW,300,20.0,33.0,25,0.00,,,0.00,459,weatherlink.com 1.10,2013-05-23 00:36:00,
2013-05-22 17:51:00,54.1,10.0,29.95,NW,312,19.0,30.0,17,0.00,,,0.00,408,weatherlink.com 1.10,2013-05-23 00:51:00,
2013-05-22 18:07:00,53.8,12.0,29.95,WNW,288,15.0,33.0,19,0.00,,,0.00,355,weatherlink.com 1.10,2013-05-23 01:07:00,
2013-05-22 18:21:00,54.0,0.0,29.95,NW,306,18.0,32.0,11,0.00,,,0.00,308,weatherlink.com 1.10,2013-05-23 01:21:00,
2013-05-22 18:37:00,53.9,2.0,29.95,NNW,332,12.0,22.0,12,0.00,,,0.00,251,weatherlink.com 1.10,2013-05-23 01:37:00,
2013-05-22 18:51:00,53.4,-7.0,29.95,NW,319,8.0,28.0,8,0.00,,,0.00,204,weatherlink.com 1.10,2013-05-23 01:51:00,
2013-05-22 19:06:00,53.0,-27.0,29.95,WNW,290,24.0,28.0,3,0.00,,,0.00,148,weatherlink.com 1.10,2013-05-23 02:06:00,
2013-05-22 19:22:00,52.7,-99.9,29.94,WNW,284,12.0,23.0,0,0.00,,,0.00,95,weatherlink.com 1.10,2013-05-23 02:22:00,
2013-05-22 19:37:00,52.2,-99.9,29.94,West,259,15.0,31.0,0,0.00,,,0.00,54,weatherlink.com 1.10,2013-05-23 02:37:00,
2013-05-22 19:52:00,51.8,-99.9,29.94,NW,319,13.0,30.0,0,0.00,,,0.00,26,weatherlink.com 1.10,2013-05-23 02:52:00,
2013-05-22 20:08:00,51.4,-99.9,29.94,NNW,344,5.0,28.0,0,0.00,,,0.00,14,weatherlink.com 1.10,2013-05-23 03:08:00,
2013-05-22 20:22:00,51.1,-99.9,29.94,NW,315,7.0,31.0,0,0.00,,,0.00,5,weatherlink.com 1.10,2013-05-23 03:22:00,
2013-05-22 20:37:00,50.9,-99.9,29.95,NNW,339,11.0,24.0,0,0.00,,,0.00,0,weatherlink.com 1.10,2013-05-23 03:37:00,
2013-05-22 20:52:00,50.7,-99.9,29.95,NW,322,7.0,26.0,0,0.00,,,0.00,0,weatherlink.com 1.10,2013-05-23 03:52:00,
2013-05-22 21:08:00,50.4,-99.9,29.95,West,265,15.0,19.0,0,0.00,,,0.00,0,weatherlink.com 1.10,2013-05-23 04:08:00,
2013-05-22 22:23:00,49.8,-99.9,29.96,West,273,15.0,22.0,0,0.00,,,0.00,0,weatherlink.com 1.10,2013-05-23 05:23:00,
2013-05-22 22:38:00,49.7,-99.9,29.96,NNW,339,7.0,18.0,0,0.00,,,0.00,0,weatherlink.com 1.10,2013-05-23 05:38:00,
2013-05-22 22:54:00,49.6,-99.9,29.96,West,281,6.0,14.0,0,0.00,,,0.00,0,weatherlink.com 1.10,2013-05-23 05:54:00,
2013-05-22 23:09:00,49.4,-99.9,29.96,WNW,303,5.0,11.0,0,0.00,,,0.00,0,weatherlink.com 1.10,2013-05-23 06:09:00,
2013-05-22 23:24:00,49.5,-99.9,29.96,NNW,331,4.0,15.0,0,0.00,,,0.00,0,weatherlink.com 1.10,2013-05-23 06:24:00,
2013-05-22 23:39:00,49.6,-99.9,29.95,NNW,336,4.0,12.0,0,0.00,,,0.00,0,weatherlink.com 1.10,2013-05-23 06:39:00,
2013-05-22 23:54:00,49.7,-99.9,29.95,West,272,7.0,18.0,0,0.00,,,0.00,0,weatherlink.com 1.10,2013-05-23 06:54:00,